This demonstration page uses our WeatherBlox Daily Observations layout. Learn more.

Left ArrowRight Arrow

34.16533, -84.80231

Hourly Observations for October 26, 2020

Temp ( °F °C ) Dew Point ( °F °C ) Humidity (%) Winds ( mph kmh ) Pressure ( in mb ) Visibility ( mi km ) Precip ( " mm )
12:11 am 00:11 Mostly Cloudy 65 18.3 63 17.2 93 93 Calm 30.03 1017 9 14 0.00 0.00
12:53 am 00:53 Cloudy 65 18.3 63 17.2 93 93 Calm 30.01 1016 8 13 0.00 0.00
1:53 am 01:53 Cloudy 66 18.9 63 17.2 90 90 Calm 30.01 1016 9 14 0.00 0.00
2:50 am 02:50 Cloudy 66 19 64 18 94 94 Calm 30.02 1017 8 13 0.00 0.00
2:53 am 02:53 Cloudy 66 18.9 64 17.8 93 93 Calm 30.01 1016 8 13 0.00 0.00
3:42 am 03:42 Cloudy 66 18.9 64 17.8 93 93 Calm 30.05 1017 7 11 0.00 0.00
3:53 am 03:53 Cloudy 66 18.9 64 17.8 93 93 Calm 30.02 1017 7 11 0.00 0.00
4:14 am 04:14 Cloudy 67 19.4 64 17.8 91 91 Calm 30.03 1017 8 13 0.00 0.00
4:32 am 04:32 Cloudy 66 18.9 64 17.8 93 93 Calm 30.03 1017 7 11 0.00 0.00
4:53 am 04:53 Cloudy 66 18.9 64 17.8 93 93 Calm 30.02 1017 7 11 0.00 0.00
5:44 am 05:44 Cloudy 66 18.9 64 17.8 93 93 Calm 30.04 1017 8 13 0.00 0.00
5:53 am 05:53 Cloudy 66 18.9 64 17.8 93 93 Calm 30.02 1017 8 13 0.00 0.00
6:53 am 06:53 Cloudy 68 20 65 18.3 90 90 Calm 30.04 1017 9 14 0.00 0.00
7:21 am 07:21 Cloudy 68 20 65 18.3 90 90 Calm 30.06 1018 10 16 0.00 0.00
7:28 am 07:28 Cloudy 68 20 65 18.3 90 90 E 3 6 30.06 1018 10 16 0.00 0.00
7:53 am 07:53 Cloudy 67 19.4 64 17.8 91 91 ESE 5 7 30.06 1018 10 16 0.00 0.00
8:23 am 08:23 Cloudy 67 19.4 63 17.2 87 87 E 5 7 30.08 1019 10 16 0.00 0.00
8:32 am 08:32 Cloudy 67 19.4 63 17.2 87 87 E 5 7 30.08 1019 10 16 0.00 0.00
8:53 am 08:53 Cloudy 67 19.4 63 17.2 87 87 ENE 3 6 30.08 1019 10 16 0.00 0.00
9:53 am 09:53 Cloudy 67 19.4 63 17.2 87 87 ESE 6 9 30.10 1019 10 16 0.00 0.00
10:53 am 10:53 Cloudy 67 19.4 62 16.7 84 84 VRB 6 9 30.11 1020 10 16 0.00 0.00
11:53 am 11:53 Cloudy 69 20.6 62 16.7 78 78 ENE 5 7 30.10 1019 10 16 0.00 0.00
12:07 pm 12:07 Cloudy 69 20.6 63 17.2 81 81 VRB 7 11 30.12 1020 10 16 0.00 0.00
12:53 pm 12:53 Cloudy 70 21.1 63 17.2 79 79 SE 7 11 30.10 1019 10 16 0.00 0.00
1:53 pm 13:53 Cloudy 71 21.7 63 17.2 76 76 ESE 6 9 30.08 1019 10 16 0.00 0.00
2:05 pm 14:05 Cloudy 72 22.2 63 17.2 73 73 SE 5 7 30.08 1019 10 16 0.00 0.00
2:39 pm 14:39 Cloudy 73 22.8 64 17.8 74 74 VRB 6 9 30.06 1018 10 16 0.00 0.00
2:53 pm 14:53 Cloudy 74 23.3 64 17.8 71 71 VRB 5 7 30.05 1018 10 16 0.00 0.00
3:53 pm 15:53 Cloudy 73 22.8 64 17.8 74 74 ESE 5 7 30.04 1017 10 16 0.00 0.00
4:51 pm 16:51 Cloudy 73 23 64 18 74 74 VRB 5 7 30.05 1018 10 16 0.00 0.00
4:53 pm 16:53 Cloudy 73 22.8 64 17.8 74 74 VRB 5 7 30.04 1017 10 16 0.00 0.00
5:53 pm 17:53 Cloudy 71 21.7 64 17.8 79 79 Calm 30.05 1018 10 16 0.00 0.00
6:53 pm 18:53 Cloudy 70 21.1 63 17.2 79 79 E 3 6 30.07 1018 10 16 0.00 0.00
7:53 pm 19:53 Cloudy 69 20.6 63 17.2 81 81 E 5 7 30.07 1018 10 16 0.00 0.00
8:53 pm 20:53 Cloudy 68 20 63 17.2 84 84 ESE 3 6 30.09 1019 10 16 0.00 0.00
9:53 pm 21:53 Partly Cloudy 67 19.4 63 17.2 87 87 Calm 30.11 1020 10 16 0.00 0.00
10:36 pm 22:36 Mostly Cloudy 66 18.9 63 17.2 90 90 NNE 3 6 30.14 1020 10 16 0.00 0.00
10:53 pm 22:53 Cloudy 67 19.4 63 17.2 87 87 Calm 30.13 1020 10 16 0.00 0.00
11:53 pm 23:53 Cloudy 67 19.4 63 17.2 87 87 SE 3 6 30.13 1020 10 16 0.00 0.00

Powered by AerisWeather